Regional Weather Roundup
Issued by NWS Northern Indiana

Home | Current Version | Previous Version | Text Only | Print | Product List | Glossary Off
Versions: 1 2 3 4 5 6 7 8 9 10 11 12 13 14 15 16 17 18 19 20 21 22 23 24 25 26 27 28 29 30 31 32 33 34 35 36 37 38 39 40 41 42 43 44 45 46 47 48 49 50

000
ASUS43 KIWX 240010
RWRIWX

KIWX WEATHER ROUNDUP
NATIONAL WEATHER SERVICE NORTHERN INDIANA
800 PM EDT WED JUL 23 2014

NOTE: "FAIR" INDICATES FEW OR NO CLOUDS BELOW 12,000 FEET WITH NO
SIGNIFICANT WEATHER AND/OR OBSTRUCTIONS TO VISIBILITY.

* THESE STATIONS ARE NOT UNDER NWS QUALITY CONTROL. THEY ALSO MAY NOT
  REPORT WEATHER SUCH AS PRECIPITATION OR FOG.

INZ001>027-240100-
NORTHERN INDIANA

CITY           SKY/WX    TMP DP  RH WIND       PRES   REMARKS
GARY*          SUNNY     66  54  63 N16G32    30.14S
VALPARAISO     SUNNY     66  51  58 N14G21    30.11S
6HR MIN TEMP:  65; 6HR MAX TEMP:  69;

MICHIGAN CITY* SUNNY     63  50  63 N15G21    30.12S
LAPORTE*       SUNNY     65  51  61 N16G22    30.12R
6HR MIN TEMP:  65; 6HR MAX TEMP:  69;

KNOX*          SUNNY     66  51  59 N14       30.10R
6HR MIN TEMP:  44; 6HR MAX TEMP:  86;

SOUTH BEND     SUNNY     68  55  63 N14       30.09S
6HR MIN TEMP:  68; 6HR MAX TEMP:  75;

ELKHART*       SUNNY     68  55  64 NW7       30.08S
GOSHEN         MOSUNNY   72  59  63 N13       30.06R
6HR MIN TEMP:  71; 6HR MAX TEMP:  77;

MONTICELLO*    SUNNY     67  57  70 N12G20    30.07S
6HR MIN TEMP:  67; 6HR MAX TEMP:  76;

LOGANSPORT*    SUNNY     68  57  68 N14       30.07R
ROCHESTER*     SUNNY     72  59  64 N14G20    30.07S
WARSAW*        PTSUNNY   70  61  73 N10       30.06R
ANGOLA*        MOSUNNY   73  64  73 N5        30.06R
FORT WAYNE     MOSUNNY   72  59  63 N7        30.04R
6HR MIN TEMP:  68; 6HR MAX TEMP:  77; 6HR PCP: TRACE;

HUNTINGTON*    PTSUNNY   72  59  64 N5        30.04R
6HR MIN TEMP:  67; 6HR MAX TEMP:  75;

PERU/GRISSOM   SUNNY     72  63  74 N14G20    30.05R
6HR MIN TEMP:  72; 6HR MAX TEMP:  77; 6HR PCP:  0.01;

MARION*        PTSUNNY   72  59  64 N9        30.04S
6HR MIN TEMP:  32; 6HR MAX TEMP:  89;


$$
INZ028>050-240100-
CENTRAL INDIANA

CITY           SKY/WX    TMP DP  RH WIND       PRES   REMARKS
LAFAYETTE      SUNNY     69  54  58 N13G23    30.08R
6HR MIN TEMP:  69; 6HR MAX TEMP:  78;

KOKOMO*        PTSUNNY   73  61  64 N13       30.04R
6HR MIN TEMP:  73; 6HR MAX TEMP:  77;

MUNCIE*        MOSUNNY   73  61  65 N6        30.03S
6HR MIN TEMP:  70; 6HR MAX TEMP:  76;

INDIANAPOLIS   PTSUNNY   74  61  63 N13       30.01S
6HR MIN TEMP:  72; 6HR MAX TEMP:  76; 6HR PCP: TRACE;


$$
MIZ043>046-050>051-056>058-064>065-071>073-077>080-240100-
SOUTHWEST LOWER MICHIGAN

CITY           SKY/WX    TMP DP  RH WIND       PRES   REMARKS
BATTLE CREEK   SUNNY     73  53  49 N10       30.08R
6HR MIN TEMP:  72; 6HR MAX TEMP:  77;

BENTON HARBOR  SUNNY     63  55  75 VRB3      30.10S
6HR MIN TEMP:  63; 6HR MAX TEMP:  67;

COLDWATER*     MOSUNNY   73  54  51 N8        30.07R
6HR MIN TEMP:  73; 6HR MAX TEMP:  76;

HILLSDALE*     MOSUNNY   72  58  60 NW5       30.07R
6HR MIN TEMP:  71; 6HR MAX TEMP:  74;

HOLLAND        SUNNY     68  57  68 NW10      30.10S
6HR MIN TEMP:  68; 6HR MAX TEMP:  75;

GRAND RAPIDS   MOSUNNY   71  56  58 N13       30.10R
6HR MIN TEMP:  70; 6HR MAX TEMP:  77;

KALAMAZOO      MOSUNNY   72  54  53 N8        30.08R
6HR MIN TEMP:  72; 6HR MAX TEMP:  77;

STURGIS*       PTSUNNY   70  59  68 N3        30.06R
THREE RIVERS*  CLOUDY    72  62  72 NW12      30.07R
6HR MIN TEMP:  71; 6HR MAX TEMP:  74;


$$
OHZ001>008-015>018-024>025-240100-
NORTHWEST OHIO

CITY           SKY/WX    TMP DP  RH WIND       PRES   REMARKS
WAUSEON*       PTSUNNY   72  59  64 NE5       30.05S
DEFIANCE       PTSUNNY   72  58  61 NE7       30.04S
6HR MIN TEMP:  70; 6HR MAX TEMP:  77;

FINDLAY        MOCLDY    68  61  78 NE14      30.04R
6HR MIN TEMP:  68; 6HR MAX TEMP:  72; 6HR PCP: TRACE;

TOLEDO EXPRESS CLOUDY    70  57  63 NE6       30.04F
6HR MIN TEMP:  70; 6HR MAX TEMP:  75;

TOLEDO METCALF CLOUDY    68  59  73 E6        30.06R
6HR MIN TEMP:  68; 6HR MAX TEMP:  74;

LIMA           CLOUDY    71  63  75 NE7       30.03S
6HR MIN TEMP:  70; 6HR MAX TEMP:  74; 6HR PCP: TRACE;


$$
&&


USA.gov is the U.S. government's official web portal to all federal, state and local government web resources and services.